Weather History for KTMK - September, 2012

Change the Weather History Date:

Friday, September 28, 2012

  Actual Average (KMMV) Record (KMMV)
Temperature  
Mean Temperature 62 °F 58 °F  
Max Temperature 73 °F 71 °F 96 °F (2003)
Min Temperature 51 °F 45 °F 31 °F (1902)
Degree Days  
Heating Degree Days 3 7  
Month to date heating degree days 114  
Since 1 July heating degree days 199  
Cooling Degree Days 0 0  
Month to date cooling degree days 31  
Year to date cooling degree days 215  
Growing Degree Days 12 (Base 50)    
Moisture  
Dew Point 53 °F    
Average Humidity 82    
Maximum Humidity 100    
Minimum Humidity 53    
Precipitation  
Precipitation 0.00 in 0.07 in 1.40 in (2013)
Month to date precipitation 1.25  
Year to date precipitation 23.58  
Sea Level Pressure  
Sea Level Pressure 29.98 in    
Wind  
Wind Speed 1 mph (NW)    
Max Wind Speed 10 mph    
Max Gust Speed -    
Visibility 7 miles    
Events      
T = Trace of Precipitation, MM = Missing Value Source: NWS Daily Summary

Daily Weather History Graph

Daily Weather History Graph

Search for Another Location

Airport or City:

Trip Planner

Search our weather history database for the weather conditions in past years. The results will help you decide how hot, cold, wet, or windy it might be!

Date:

Astronomy

Sep. 28, 2012 Rise Set
Actual Time 8:10 AM MDT 8:00 PM MDT
Civil Twilight 7:40 AM MDT 8:29 PM MDT
Nautical Twilight 7:06 AM MDT 9:03 PM MDT
Astronomical Twilight 6:31 AM MDT 9:38 PM MDT
Moon 7:05 PM MDT (9/28) 6:45 AM MDT (9/28)
Length of Visible Light 12h 48m
Length of Day
11h 49m
Waxing Gibbous, 98% of the Moon is Illuminated
Sep 28
Waxing Gibbous
Sep 29
Full
Oct 8
Last Quarter
Oct 15
New
Oct 21
First Quarter

Hourly Weather History & Observations

Time (MDT) Temp. Dew Point Humidity Pressure Visibility Wind Dir Wind Speed Gust Speed Precip Events Conditions
12:15 AM 55.4 °F 51.8 °F 88% 29.93 in - WSW 3.5 mph - N/A   Unknown
12:35 AM 55.4 °F 51.8 °F 88% 29.93 in - Calm Calm - N/A   Unknown
12:55 AM 57.2 °F 53.6 °F 88% 29.93 in - Calm Calm - N/A   Unknown
1:15 AM 55.4 °F 51.8 °F 88% 29.93 in - Calm Calm - N/A   Unknown
1:35 AM 55.4 °F 51.8 °F 88% 29.93 in - Calm Calm - N/A   Unknown
1:55 AM 53.6 °F 51.8 °F 94% 29.93 in - Calm Calm - N/A   Unknown
2:15 AM 53.6 °F 51.8 °F 94% 29.93 in - Calm Calm - N/A   Unknown
2:35 AM 55.4 °F 53.6 °F 94% 29.93 in - Calm Calm - N/A   Unknown
2:55 AM 55.4 °F 51.8 °F 88% 29.93 in - Calm Calm - N/A   Unknown
3:15 AM 55.4 °F 51.8 °F 88% 29.93 in - Calm Calm - N/A   Unknown
3:35 AM 55.4 °F 51.8 °F 88% 29.93 in 10.0 mi Calm Calm - N/A   Clear
3:55 AM 53.6 °F 51.8 °F 94% 29.93 in 10.0 mi Calm Calm - N/A   Clear
4:15 AM 53.6 °F 51.8 °F 94% 29.93 in 7.0 mi Calm Calm - N/A   Clear
4:35 AM 53.6 °F 51.8 °F 94% 29.93 in 7.0 mi Calm Calm - N/A   Clear
4:55 AM 53.6 °F 51.8 °F 94% 29.93 in 7.0 mi Calm Calm - N/A   Clear
5:15 AM 53.6 °F 51.8 °F 94% 29.93 in 10.0 mi Calm Calm - N/A   Clear
5:35 AM 53.6 °F 51.8 °F 94% 29.93 in 10.0 mi Calm Calm - N/A   Clear
5:55 AM 53.6 °F 51.8 °F 94% 29.93 in 10.0 mi Calm Calm - N/A   Clear
6:15 AM 51.8 °F 50.0 °F 94% 29.93 in 7.0 mi Calm Calm - N/A   Clear
6:35 AM 51.8 °F 51.8 °F 100% 29.93 in 7.0 mi Calm Calm - N/A   Clear
6:55 AM 51.8 °F 51.8 °F 100% 29.94 in 7.0 mi Calm Calm - N/A   Clear
7:15 AM 51.8 °F 51.8 °F 100% 29.95 in 7.0 mi Calm Calm - N/A   Clear
7:35 AM 51.8 °F 51.8 °F 100% 29.96 in 7.0 mi Calm Calm - N/A   Clear
7:55 AM 51.8 °F 51.8 °F 100% 29.96 in 7.0 mi Calm Calm - N/A   Clear
8:15 AM 51.8 °F 50.0 °F 94% 29.97 in 4.0 mi Calm Calm - N/A   Clear
8:35 AM 51.8 °F 50.0 °F 94% 29.97 in 5.0 mi Calm Calm - N/A   Clear
8:55 AM 51.8 °F 50.0 °F 94% 29.97 in 7.0 mi Calm Calm - N/A   Clear
9:15 AM 51.8 °F 51.8 °F 100% 29.98 in 5.0 mi WSW 3.5 mph - N/A   Clear
9:35 AM 51.8 °F 51.8 °F 100% 29.99 in 5.0 mi Calm Calm - N/A   Clear
9:55 AM 53.6 °F 53.6 °F 100% 30.00 in 5.0 mi Calm Calm - N/A   Clear
10:15 AM 55.4 °F 53.6 °F 94% 30.00 in 5.0 mi Calm Calm - N/A   Clear
10:35 AM 57.2 °F 53.6 °F 88% 30.00 in 4.0 mi Calm Calm - N/A   Clear
10:55 AM 59.0 °F 53.6 °F 82% 30.00 in 4.0 mi Calm Calm - N/A   Haze
11:15 AM 59.0 °F 53.6 °F 82% 29.99 in 5.0 mi NW 3.5 mph - N/A   Haze
11:35 AM 59.0 °F 55.4 °F 88% 29.99 in 5.0 mi Calm Calm - N/A   Haze
11:55 AM 62.6 °F 55.4 °F 77% 29.99 in 5.0 mi Calm Calm - N/A   Haze
12:15 PM 64.4 °F 55.4 °F 73% 29.99 in 7.0 mi Calm Calm - N/A   Clear
12:35 PM 66.2 °F 55.4 °F 68% 29.99 in 10.0 mi Calm Calm - N/A   Clear
12:55 PM 69.8 °F 55.4 °F 60% 29.98 in - Calm Calm - N/A   Clear
1:15 PM 69.8 °F 55.4 °F 60% 29.97 in - Calm Calm - N/A   Clear
1:35 PM 71.6 °F 55.4 °F 57% 29.98 in - Calm Calm - N/A   Clear
1:55 PM 73.4 °F 57.2 °F 57% 29.98 in - NW 6.9 mph - N/A   Clear
2:15 PM 69.8 °F 55.4 °F 60% 30.00 in - WNW 10.4 mph - N/A   Clear
2:35 PM 68.0 °F 55.4 °F 64% 29.99 in - WNW 3.5 mph - N/A   Clear
2:55 PM 68.0 °F 55.4 °F 64% 29.99 in - Calm Calm - N/A   Clear
3:15 PM 69.8 °F 55.4 °F 60% 29.99 in - WSW 5.8 mph - N/A   Clear
3:35 PM 68.0 °F 53.6 °F 60% 30.00 in - NW 8.1 mph - N/A   Clear
3:55 PM 68.0 °F 53.6 °F 60% 30.01 in - West 4.6 mph - N/A   Clear
4:15 PM 68.0 °F 53.6 °F 60% 30.00 in - North 4.6 mph - N/A   Clear
4:35 PM 69.8 °F 51.8 °F 53% 29.99 in - Calm Calm - N/A   Clear
4:55 PM 69.8 °F 51.8 °F 53% 29.99 in - NNW 10.4 mph - N/A   Clear
5:15 PM 66.2 °F 50.0 °F 56% 30.00 in - NNW 10.4 mph - N/A   Clear
5:35 PM 64.4 °F 51.8 °F 64% 29.99 in - NNW 6.9 mph - N/A   Clear
5:55 PM 64.4 °F 51.8 °F 64% 29.99 in - Calm Calm - N/A   Clear
6:15 PM 66.2 °F 51.8 °F 60% 30.00 in - Calm Calm - N/A   Clear
6:35 PM 66.2 °F 50.0 °F 56% 29.99 in - Calm Calm - N/A   Clear
6:55 PM 64.4 °F 50.0 °F 59% 29.99 in - North 4.6 mph - N/A   Clear
7:15 PM 62.6 °F 50.0 °F 63% 30.00 in - NNW 8.1 mph - N/A   Clear
7:35 PM 62.6 °F 51.8 °F 68% 30.01 in - NNW 5.8 mph - N/A   Clear
7:55 PM 60.8 °F 51.8 °F 72% 30.01 in - NE 3.5 mph - N/A   Clear
8:15 PM 59.0 °F 51.8 °F 77% 30.02 in - Calm Calm - N/A   Clear
8:35 PM 57.2 °F 51.8 °F 82% 30.02 in - Calm Calm - N/A   Clear
8:55 PM 57.2 °F 51.8 °F 82% 30.02 in - NNE 3.5 mph - N/A   Clear
9:15 PM 55.4 °F 51.8 °F 88% 30.03 in - Calm Calm - N/A   Unknown
9:35 PM 55.4 °F 51.8 °F 88% 30.04 in - Calm Calm - N/A   Unknown
9:55 PM 53.6 °F 51.8 °F 94% 30.05 in - Calm Calm - N/A   Mostly Cloudy
10:15 PM 55.4 °F 53.6 °F 94% 30.05 in - Calm Calm - N/A   Overcast
10:35 PM 55.4 °F 53.6 °F 94% 30.05 in - Calm Calm - N/A   Overcast
10:55 PM 53.6 °F 51.8 °F 94% 30.04 in - Calm Calm - N/A   Overcast
11:15 PM 55.4 °F 51.8 °F 88% 30.04 in - Calm Calm - N/A   Overcast
11:35 PM 53.6 °F 51.8 °F 94% 30.05 in - Calm Calm - N/A   Overcast
11:55 PM 55.4 °F 55.4 °F 100% 30.06 in - Calm Calm - N/A   Overcast